User: anonymous   Login
Location: Starry Hill Observatory
(46.8582°N, 122.3590°W)
Time: 00:25:27
(UTC-08:00)
Language:

Cosmos 1300 Rocket - Orbit

View from above orbital plane
View from above orbital plane
View from above satellite
View from above satellite

Ground track
Ground track

The orbit data is extracted from the following two-line orbital elements,

1 12786U 81082B   18021.42684174 +.00000089 +00000-0 +76373-5 0  9999
2 12786 082.4902 122.0256 0016090 252.9761 106.9692 14.84715049967195
Epoch (UTC): 21 January 2018 10:14:39
Eccentricity: 0.0016090
inclination: 82.4902°
perigee height: 603 km
apogee height: 626 km
right ascension of ascending node: 122.0256°
argument of perigee: 252.9761°
revolutions per day: 14.84715049
mean anomaly at epoch: 106.9692°
orbit number at epoch: 96719

The dashed part of the orbit path shows where the satellite is in the earth's shadow,  

DLR